Terminal Aerodrome Forecast
Issued by NWS Portland, OR

Home | Current Version | Previous Version | Text Only | Print | Product List | Glossary On
Versions: 1 2 3 4 5 6 7 8 9 10 11 12 13 14 15 16 17 18 19 20 21 22 23 24 25 26 27 28 29 30 31 32 33 34 35 36
000
FTUS46 KPQR 211358 AAA
TAFAST
TAF AMD
KAST 211358Z 2114/2212 25013KT P6SM -SHRA BKN015 BKN025 OVC060
     FM211900 25010KT P6SM -SHRA SCT020 BKN035 OVC060
     FM220200 24008KT P6SM VCSH SCT025 OVC045=

USA.gov is the U.S. government's official web portal to all federal, state and local government web resources and services.